This demonstration page uses our WeatherBlox Daily Observations layout. Learn more.

Left ArrowRight Arrow

44.89941, -97.11507

Hourly Observations for July 30, 2016

Temp ( °F °C ) Dew Point ( °F °C ) Humidity (%) Winds ( mph kmh ) Pressure ( in mb ) Visibility ( mi km ) Precip ( " mm )
12:53 am 00:53 Mostly Clear 64 17.8 56 13.3 75 75 S 6 9 30.03 1017 10 16 0.00 0.00
1:53 am 01:53 Clear 63 17.2 56 13.3 78 78 SSE 8 13 30.01 1016 10 16 0.00 0.00
2:53 am 02:53 Mostly Cloudy 62 16.7 55 12.8 78 78 SSE 7 11 30.01 1016 10 16 0.00 0.00
3:53 am 03:53 Mostly Cloudy 62 16.7 55 12.8 78 78 S 8 13 30.01 1016 10 16 0.00 0.00
4:53 am 04:53 Mostly Cloudy 61 16.1 57 13.9 87 87 S 8 13 30.00 1016 10 16 0.00 0.00
5:53 am 05:53 Clear 58 14.4 54 12.2 87 87 SSE 6 9 30.00 1016 10 16 0.00 0.00
6:53 am 06:53 Sunny 60 15.6 55 12.8 84 84 Calm 30.00 1016 10 16 0.00 0.00
7:53 am 07:53 Sunny 63 17.2 56 13.3 78 78 S 5 7 30.01 1016 10 16 0.00 0.00
8:53 am 08:53 Sunny 68 20 58 14.4 70 70 SSE 9 15 30.01 1016 10 16 0.00 0.00
9:53 am 09:53 Sunny 70 21.1 59 15 68 68 SSE 10 17 30.00 1016 10 16 0.00 0.00
10:53 am 10:53 Sunny 75 23.9 60 15.6 60 60 SSE 13 20 29.99 1016 10 16 0.00 0.00
11:53 am 11:53 Sunny 76 24.4 58 14.4 54 54 S 12 19 29.98 1015 10 16 0.00 0.00
12:53 pm 12:53 Sunny 78 25.6 59 15 52 52 SE 10 17 29.97 1015 10 16 0.00 0.00
1:53 pm 13:53 Sunny 80 26.7 58 14.4 47 47 SSE 10 17 29.96 1014 10 16 0.00 0.00
2:53 pm 14:53 Sunny 81 27.2 58 14.4 45 45 S 10 17 29.95 1014 10 16 0.00 0.00
3:53 pm 15:53 Sunny 81 27.2 58 14.4 45 45 SSE 13 20 29.94 1014 10 16 0.00 0.00
4:53 pm 16:53 Sunny 80 26.7 59 15 49 49 S 12 19 29.93 1014 10 16 0.00 0.00
5:53 pm 17:53 Mostly Sunny 80 26.7 59 15 49 49 S 13 20 29.93 1014 10 16 0.00 0.00
6:53 pm 18:53 Sunny 79 26.1 59 15 50 50 SSE 13 20 29.92 1013 10 16 0.00 0.00
7:53 pm 19:53 Sunny 76 24.4 59 15 56 56 SSE 10 17 29.91 1013 10 16 0.00 0.00
8:53 pm 20:53 Sunny 73 22.8 60 15.6 64 64 SSE 9 15 29.91 1013 10 16 0.00 0.00
9:53 pm 21:53 Clear 71 21.7 58 14.4 63 63 SE 8 13 29.92 1013 10 16 0.00 0.00
10:53 pm 22:53 Clear 69 20.6 59 15 70 70 SE 9 15 29.92 1013 10 16 0.00 0.00
11:53 pm 23:53 Clear 68 20 58 14.4 70 70 SE 9 15 29.91 1013 10 16 0.00 0.00

Powered by AerisWeather